Date_and_time,latitude,longitude,wind_speed,RelWindDirFrom,WindDirFrom,air_pressure,air_temperature,relative_humidity,Temp,platform_speed_wrt_ground,air_pressure_at_mean_sea_level,platform_orientation
2019-07-28 00:00,53.750905,-98.073855,9.3,10.3,203,981.28,22.6,76,20.95,0.0,1006.80,18.5
2019-07-28 00:10,53.7509166666667,-98.0738633333333,9.0,10.3,207,981.20,22.7,75,20.96,0.0,1006.73,18.5
2019-07-28 00:20,53.75089,-98.0738466666667,10.1,11.5,207,981.14,22.7,76,20.97,0.0,1006.68,18.5
2019-07-28 00:30,53.75091,-98.0738566666667,9.6,11.2,209,981.10,22.5,78,20.97,0.0,1006.65,18.5
2019-07-28 00:40,53.750905,-98.07384,10.3,11.1,210,981.01,22.5,78,20.97,0.0,1006.55,18.5
2019-07-28 00:50,53.7508916666667,-98.0738533333333,9.2,10.2,216,981.04,22.6,77,20.99,0.0,1006.58,18.5
2019-07-28 01:00,53.7508883333333,-98.0738533333333,9.9,11.3,219,981.00,22.9,73,21.01,0.0,1006.53,145.8
2019-07-28 01:10,53.7508933333333,-98.07384,8.9,11.0,222,981.00,23.2,70,21.00,0.0,1006.51,145.8
2019-07-28 01:20,53.7509033333333,-98.0738666666667,9.8,11.3,217,980.94,23.2,70,20.99,0.0,1006.44,145.8
2019-07-28 01:30,53.7508966666667,-98.0738466666667,9.2,10.7,218,980.96,23.1,71,20.97,0.0,1006.46,145.8
2019-07-28 01:40,53.750895,-98.07384,8.1,10.2,228,980.95,23.2,68,20.96,0.0,1006.46,145.8
2019-07-28 01:50,53.7508983333333,-98.0738683333333,7.9,9.4,234,981.00,23.1,70,20.94,0.0,1006.51,145.8
2019-07-28 02:00,53.75089,-98.07385,6.8,7.9,229,981.04,22.7,74,20.93,0.0,1006.56,149.5
2019-07-28 02:10,53.75089,-98.0738533333333,6.0,7.1,225,981.07,22.5,76,20.94,0.0,1006.61,149.5
2019-07-28 02:20,53.750895,-98.07386,5.0,5.9,224,981.11,22.2,79,20.94,0.0,1006.66,149.5
2019-07-28 02:30,53.7508916666667,-98.07386,2.6,4.1,226,981.20,22.0,81,20.93,0.0,1006.77,149.5
2019-07-28 02:40,53.750895,-98.073835,3.5,7.6,236,981.25,21.9,83,20.90,0.0,1006.82,149.5
2019-07-28 02:50,53.750895,-98.073845,7.8,9.3,236,981.19,22.7,70,20.88,0.0,1006.71,149.5
2019-07-28 03:00,53.750895,-98.0738483333333,5.9,7.5,225,981.23,22.6,74,20.86,0.0,1006.74,136.7
2019-07-28 03:10,53.750895,-98.0738266666667,3.0,4.8,198,981.25,22.0,82,20.85,0.0,1006.79,136.7
2019-07-28 03:20,53.7509016666667,-98.073855,4.1,6.2,155,981.24,21.6,87,20.83,0.0,1006.81,136.7
2019-07-28 03:30,53.75089,-98.0738633333333,4.5,6.4,156,981.22,21.7,84,20.84,0.0,1006.77,136.7
2019-07-28 03:40,53.7508983333333,-98.0738583333333,1.8,3.5,122,981.18,21.4,87,20.83,0.0,1006.75,136.7
2019-07-28 03:50,53.7508933333333,-98.0738566666667,1.8,2.7,84,981.11,21.0,87,20.83,0.0,1006.71,136.7
2019-07-28 04:00,53.7509,-98.0738683333333,2.7,5.3,157,981.13,21.1,90,20.82,0.0,1006.73,360.0
2019-07-28 04:10,53.7508866666667,-98.0738516666667,3.8,5.0,159,981.05,21.4,90,20.82,0.0,1006.66,360.0
2019-07-28 04:20,53.7508883333333,-98.0738583333333,1.7,4.2,98,980.95,21.2,92,20.81,0.0,1006.57,360.0
2019-07-28 04:30,53.7508916666667,-98.073855,2.4,3.7,79,980.87,20.8,91,20.81,0.0,1006.51,360.0
2019-07-28 04:40,53.75089,-98.073855,2.7,3.8,124,980.87,20.9,92,20.81,0.0,1006.47,360.0
2019-07-28 04:50,53.7508933333333,-98.073855,3.4,4.7,134,980.82,21.1,89,20.80,0.0,1006.41,360.0
2019-07-28 05:00,53.7508933333333,-98.0738566666667,3.3,4.5,143,980.71,21.2,88,20.76,0.0,1006.33,360.0
2019-07-28 05:10,53.7508933333333,-98.0738716666667,2.7,3.3,160,980.64,21.4,86,20.79,0.0,1006.26,360.0
2019-07-28 05:20,53.7508933333333,-98.073865,3.2,4.6,154,980.56,21.3,86,20.78,0.0,1006.17,360.0
2019-07-28 05:30,53.7509033333333,-98.0738716666667,3.5,4.4,154,980.44,21.3,85,20.81,0.0,1006.06,360.0
2019-07-28 05:40,53.7508983333333,-98.0738733333333,3.6,4.5,143,980.34,21.5,83,20.81,0.0,1005.97,360.0
2019-07-28 05:50,53.7509016666667,-98.0738816666667,3.7,5.0,122,980.18,21.4,84,20.84,0.0,1005.81,360.0
2019-07-28 06:00,53.7509033333333,-98.0738816666667,4.1,5.7,117,980.03,21.1,86,20.87,0.0,1005.66,285.7
2019-07-28 06:10,53.7509033333333,-98.0738816666667,4.3,5.4,129,979.91,21.1,86,20.89,0.0,1005.54,285.7
2019-07-28 06:20,53.750915,-98.07389,4.1,5.5,138,979.82,21.1,87,20.90,0.0,1005.46,285.7
2019-07-28 06:30,53.7509216666667,-98.0739216666667,5.2,7.0,144,979.72,21.3,88,20.92,0.0,1005.35,285.7
2019-07-28 06:40,53.7509583333333,-98.0739466666667,7.3,9.6,149,979.52,21.5,87,20.98,0.0,1005.13,285.7
2019-07-28 06:50,53.7509733333333,-98.0739633333333,8.5,10.0,158,979.36,21.8,84,20.99,0.0,1004.95,285.7
2019-07-28 07:00,53.7509683333333,-98.0739716666667,8.0,9.3,157,979.24,21.8,85,20.99,0.0,1004.82,312.5
2019-07-28 07:10,53.7509666666667,-98.073985,8.7,10.0,160,979.12,21.7,85,21.00,0.0,1004.70,312.5
2019-07-28 07:20,53.750975,-98.0739816666667,9.4,10.9,160,978.98,21.8,83,21.02,0.0,1004.55,312.5
2019-07-28 07:30,53.7509766666667,-98.073985,9.5,11.0,159,978.91,21.9,83,21.06,0.0,1004.46,312.5
2019-07-28 07:40,53.7509783333333,-98.0739916666667,9.2,10.7,153,978.85,21.9,85,21.08,0.0,1004.41,312.5
2019-07-28 07:50,53.7509833333333,-98.0739766666667,8.4,9.5,155,978.76,21.7,89,21.07,0.0,1004.34,312.5
2019-07-28 08:00,53.7509566666667,-98.07397,7.8,9.6,146,978.61,21.6,89,21.08,0.0,1004.18,313.9
2019-07-28 08:10,53.7509766666667,-98.0740416666667,9.3,12.6,150,978.40,22.0,81,21.08,0.0,1003.96,313.9
2019-07-28 08:20,53.7509866666667,-98.074005,9.0,11.2,150,978.12,22.3,77,21.09,0.0,1003.64,313.9
2019-07-28 08:30,53.7510133333333,-98.0740366666667,9.6,13.1,153,977.95,22.6,73,21.09,0.0,1003.45,313.9
2019-07-28 08:40,53.7510333333333,-98.0740783333333,12.0,14.3,154,977.81,22.6,73,21.06,0.0,1003.29,313.9
2019-07-28 08:50,53.751005,-98.0740883333333,12.8,15.2,155,977.64,22.6,74,21.06,0.0,1003.12,313.9
2019-07-28 09:00,53.7510116666667,-98.074095,13.7,15.3,153,977.44,22.6,74,21.06,0.0,1002.92,308.5
2019-07-28 09:10,53.7510216666667,-98.0741,13.2,15.8,150,977.14,22.3,77,21.05,0.0,1002.62,308.5
2019-07-28 09:20,53.75099,-98.0740716666667,12.6,15.9,146,976.83,22.3,74,21.05,0.0,1002.30,308.5
2019-07-28 09:30,53.7510216666667,-98.07411,13.2,16.4,144,976.51,22.3,74,21.06,0.0,1001.97,308.5
2019-07-28 09:40,53.75102,-98.0741233333333,14.4,18.6,147,976.37,22.3,76,21.04,0.0,1001.83,308.5
2019-07-28 09:50,53.7510266666667,-98.0741233333333,13.7,17.3,146,976.27,22.1,79,21.05,0.0,1001.74,308.5
2019-07-28 10:00,53.7510216666667,-98.0741266666667,14.6,18.5,147,975.99,22.3,78,21.05,0.0,1001.43,300.5
2019-07-28 10:10,53.7510183333333,-98.0741333333333,15.0,19.0,144,975.69,22.4,75,21.05,0.0,1001.10,300.5
2019-07-28 10:20,53.7465333333333,-98.07884,17.4,23.1,148,975.35,22.4,75,21.06,1.9,1000.75,300.5
2019-07-28 10:30,53.729445,-98.1014683333333,21.3,25.4,162,974.76,22.1,80,20.96,7.8,1000.15,300.5
2019-07-28 10:40,53.7141683333333,-98.1454,19.0,21.6,167,974.76,21.5,85,20.84,10.9,1000.17,300.5
2019-07-28 10:50,53.6983433333333,-98.1885133333333,20.3,23.0,166,974.26,21.5,85,20.76,10.8,999.66,300.5
2019-07-28 11:00,53.6922566666667,-98.201595,21.7,26.3,155,973.24,21.8,81,20.81,3.5,998.61,232.2
2019-07-28 11:10,53.6922916666667,-98.2016,21.0,24.4,150,972.78,22.1,79,20.81,0.0,998.14,232.2
2019-07-28 11:20,53.6923183333333,-98.2016633333333,20.8,25.2,149,972.72,21.9,82,20.81,0.0,998.08,232.2
2019-07-28 11:30,53.692155,-98.204345,20.2,24.3,147,972.62,21.8,83,20.79,0.6,997.98,232.2
2019-07-28 11:40,53.6902966666667,-98.252785,18.8,24.3,175,972.99,21.6,82,20.80,10.3,998.38,232.2
2019-07-28 11:50,53.6821183333333,-98.3001716666667,21.7,27.4,182,973.18,21.6,83,20.84,10.5,998.56,232.2
2019-07-28 12:00,53.6746183333333,-98.348075,20.1,24.5,190,973.10,21.6,83,20.83,10.6,998.48,244.9
2019-07-28 12:10,53.6709233333333,-98.3973816666667,20.6,26.0,201,973.13,21.5,81,20.85,10.6,998.51,244.9
2019-07-28 12:20,53.6684966666667,-98.430555,20.5,24.9,197,972.97,21.8,76,20.75,7.1,998.35,244.9
2019-07-28 12:30,53.66834,-98.4404866666667,17.8,21.5,185,972.64,21.6,78,20.60,2.1,998.04,244.9
2019-07-28 12:40,53.6662833333333,-98.447785,18.1,21.7,187,971.96,21.6,78,20.58,1.7,997.35,244.9
2019-07-28 12:50,53.663245,-98.4576733333333,18.9,22.5,189,972.04,21.4,80,20.56,2.4,997.42,244.9
2019-07-28 13:00,53.662345,-98.4811466666667,19.2,23.7,192,972.36,21.3,80,20.58,5.0,997.75,250.0
2019-07-28 13:10,53.6622183333333,-98.4822166666667,18.6,22.0,194,971.67,21.5,79,20.62,0.2,997.04,250.0
2019-07-28 13:20,53.6623366666667,-98.4821516666667,18.9,23.3,202,971.92,21.6,80,20.59,0.0,997.30,250.0
2019-07-28 13:30,53.662395,-98.482105,19.8,22.8,213,972.15,21.6,79,20.57,0.0,997.54,250.0
2019-07-28 13:40,53.66242,-98.4819566666667,20.0,23.3,224,972.42,21.6,77,20.55,0.0,997.81,250.0
2019-07-28 13:50,53.6707816666667,-98.4823183333333,14.2,20.2,223,972.48,21.4,77,20.53,3.0,997.89,250.0
2019-07-28 14:00,53.700155,-98.4837033333333,7.2,14.1,245,972.66,21.3,77,20.53,10.6,998.07,272.8
2019-07-28 14:10,53.73062,-98.4900716666667,7.1,10.1,253,972.35,21.1,79,20.50,11.1,997.76,272.8
2019-07-28 14:20,53.7612183333333,-98.4945033333333,8.6,12.5,241,972.43,20.9,81,20.48,11.1,997.85,272.8
2019-07-28 14:30,53.7873266666667,-98.4979633333333,8.5,12.3,235,972.10,20.8,83,20.50,9.4,997.52,272.8
2019-07-28 14:40,53.7955883333333,-98.4995266666667,10.9,13.0,205,971.69,20.8,82,20.52,3.0,997.11,272.8
2019-07-28 14:50,53.803525,-98.4993516666667,11.6,14.4,205,971.76,20.9,81,20.52,2.9,997.18,272.8
2019-07-28 15:00,53.8116683333333,-98.4992233333333,14.2,19.0,215,971.83,21.0,78,20.57,2.9,997.23,326.9
2019-07-28 15:10,53.8301,-98.49835,12.1,18.9,252,971.71,21.3,68,20.65,6.6,997.10,326.9
2019-07-28 15:20,53.833675,-98.4996216666667,13.2,16.1,264,971.37,21.5,66,20.66,1.3,996.74,326.9
2019-07-28 15:30,53.8335516666667,-98.49945,14.5,20.0,263,971.61,21.4,64,20.69,0.1,997.00,326.9
2019-07-28 15:40,53.833615,-98.4995233333333,15.7,19.6,256,971.57,21.3,61,20.71,0.0,996.97,326.9
2019-07-28 15:50,53.83347,-98.4999533333333,12.6,17.0,246,971.75,21.0,68,20.69,0.1,997.16,326.9
2019-07-28 16:00,53.8183016666667,-98.5285566666667,21.4,27.5,236,970.92,20.9,66,20.67,8.2,996.33,349.8
2019-07-28 16:10,53.7986466666667,-98.5660566666667,23.1,27.9,231,970.83,20.8,67,20.66,10.7,996.25,349.8
2019-07-28 16:20,53.7782466666667,-98.602375,24.7,28.3,226,970.84,20.6,65,20.58,10.7,996.27,349.8
2019-07-28 16:30,53.7580616666667,-98.63895,25.0,27.6,226,970.59,20.4,64,20.50,10.6,996.02,349.8
2019-07-28 16:40,53.7381983333333,-98.6759433333333,26.6,31.1,239,970.41,20.5,60,20.37,10.6,995.83,349.8
2019-07-28 16:50,53.7182066666667,-98.7119033333333,29.5,33.5,253,970.51,20.5,58,20.28,10.5,995.92,349.8
2019-07-28 17:00,53.6981616666667,-98.7479116666667,28.4,34.6,258,970.86,20.2,57,20.25,10.5,996.29,269.4
2019-07-28 17:10,53.677545,-98.78369,23.4,28.1,255,971.39,20.2,59,20.25,10.6,996.83,269.4
2019-07-28 17:20,53.6572633333333,-98.819985,25.8,31.6,250,971.26,20.7,54,20.24,10.6,996.67,269.4
2019-07-28 17:30,53.6371016666667,-98.8560666666667,29.2,34.3,255,971.10,21.0,53,20.20,10.6,996.50,269.4
2019-07-28 17:40,53.6219216666667,-98.8836083333333,22.3,28.8,250,971.75,21.0,54,20.11,8.0,997.17,269.4
2019-07-28 17:50,53.6168816666667,-98.8891433333333,20.2,27.0,240,972.12,21.3,51,20.16,2.2,997.55,269.4
2019-07-28 18:00,53.6126633333333,-98.8961833333333,18.7,22.9,236,972.10,21.4,52,20.10,2.1,997.53,229.9
2019-07-28 18:10,53.6092433333333,-98.9047033333333,17.3,22.8,232,972.04,21.1,55,20.04,2.2,997.49,229.9
2019-07-28 18:20,53.5997666666667,-98.9253966666667,19.7,25.4,234,971.69,21.2,54,19.92,5.6,997.14,229.9
2019-07-28 18:30,53.599925,-98.9252933333333,13.4,18.8,231,972.23,21.1,55,19.85,0.1,997.69,229.9
2019-07-28 18:40,53.5999083333333,-98.925275,14.4,20.9,232,972.08,21.1,54,19.81,0.0,997.54,229.9
2019-07-28 18:50,53.5999033333333,-98.9252616666667,13.4,18.0,237,972.08,21.2,54,19.81,0.0,997.54,229.9
2019-07-28 19:00,53.599905,-98.9252483333333,16.1,20.4,234,971.87,21.0,57,19.79,0.0,997.34,227.2
2019-07-28 19:10,53.5960233333333,-98.92182,17.7,22.7,239,971.88,20.9,58,19.76,1.6,997.33,227.2
2019-07-28 19:20,53.56946,-98.8999316666667,20.8,26.5,209,971.85,20.8,60,19.72,10.6,997.30,227.2
2019-07-28 19:30,53.542985,-98.8777633333333,17.2,28.3,201,971.95,20.6,62,19.67,10.6,997.40,227.2
2019-07-28 19:40,53.51636,-98.8538866666667,26.9,33.2,216,971.66,20.8,60,19.91,10.9,997.08,227.2
2019-07-28 19:50,53.4890933333333,-98.83136,25.9,32.2,226,971.84,20.7,60,19.93,10.9,997.26,227.2
2019-07-28 20:00,53.461635,-98.809245,24.6,29.4,228,971.97,20.6,60,19.86,11.0,997.42,188.8
2019-07-28 20:10,53.43923,-98.7910633333333,25.0,31.3,228,971.96,20.5,60,19.78,9.0,997.41,188.8
2019-07-28 20:20,53.4136916666667,-98.76784,27.2,31.8,223,971.91,20.3,63,19.79,10.5,997.37,188.8
2019-07-28 20:30,53.411745,-98.7663233333333,22.5,27.8,248,971.96,19.9,65,19.88,0.8,997.44,188.8
2019-07-28 20:40,53.4118516666667,-98.7663066666667,18.9,25.2,242,972.03,19.6,66,19.90,0.0,997.52,188.8
2019-07-28 20:50,53.4122583333333,-98.765865,20.9,24.5,223,971.74,19.8,63,19.91,0.2,997.22,188.8
2019-07-28 21:00,53.4124016666667,-98.76565,18.8,24.3,229,971.88,19.7,66,19.91,0.1,997.37,158.8
2019-07-28 21:10,53.4121733333333,-98.76851,20.4,28.9,232,971.73,19.6,67,19.93,0.6,997.23,158.8
2019-07-28 21:20,53.3947183333333,-98.7995266666667,28.5,35.5,241,970.70,19.6,67,19.93,9.2,996.18,158.8
2019-07-28 21:30,53.3745033333333,-98.8343316666667,29.3,36.6,255,970.99,19.4,67,19.92,10.4,996.48,158.8
2019-07-28 21:40,53.3543466666667,-98.8692883333333,32.4,37.3,245,970.34,18.9,69,19.91,10.4,995.84,158.8
2019-07-28 21:50,53.33407,-98.9045533333333,31.4,36.7,233,970.11,18.3,76,19.86,10.5,995.63,158.8
2019-07-28 22:00,53.313555,-98.940015,30.0,34.5,244,970.60,18.5,75,19.84,10.6,996.13,181.8
2019-07-28 22:10,53.2927416666667,-98.97548,26.6,34.5,248,971.14,18.6,77,19.87,10.7,996.69,181.8
2019-07-28 22:20,53.2773166666667,-99.017065,29.6,36.6,254,970.85,18.5,78,19.86,10.5,996.41,181.8
2019-07-28 22:30,53.2644,-99.0607866666667,31.7,37.8,257,970.54,17.9,85,19.97,10.5,996.13,181.8
2019-07-28 22:40,53.251645,-99.10395,28.0,32.3,270,971.44,17.7,84,19.89,10.4,997.06,181.8
2019-07-28 22:50,53.2388016666667,-99.1467616666667,25.5,33.4,275,971.72,18.3,81,20.19,10.3,997.33,181.8
2019-07-28 23:00,53.2279883333333,-99.1822816666667,23.3,34.1,278,972.02,18.4,76,20.14,8.6,997.63,223.8
2019-07-28 23:10,53.22452,-99.19123,19.8,25.8,277,972.77,18.4,77,20.01,2.3,998.40,223.8
2019-07-28 23:20,53.2206366666667,-99.202055,21.7,26.2,286,972.84,18.6,75,19.79,2.7,998.48,223.8
2019-07-28 23:30,53.2169533333333,-99.2144066666667,18.6,22.3,284,973.14,18.6,77,19.52,3.0,998.80,223.8
